Regional Weather Roundup
Issued by NWS Cleveland, OH

Home | Current Version | Previous Version | Graphics & Text | Print | Product List | Glossary On
Versions: 1 2 3 4 5 6 7 8 9 10 11 12 13 14 15 16 17 18 19 20 21 22 23 24 25 26 27 28 29 30 31 32 33 34 35 36 37 38 39 40 41 42 43 44 45 46 47 48 49 50
000
ASUS41 KCLE 301102
RWRCLE
OHIO REGIONAL WEATHER ROUNDUP
NATIONAL WEATHER SERVICE CLEVELAND, OH
700 AM EDT SUN AUG 30 2015

NOTE: "FAIR" INDICATES FEW OR NO CLOUDS BELOW 12,000 FEET WITH NO
SIGNIFICANT WEATHER AND/OR OBSTRUCTIONS TO VISIBILITY.

OHZ001>008-015>018-024>027-034-035-043-044-301200-
   NORTHWEST OHIO

CITY           SKY/WX    TMP DP  RH WIND       PRES   REMARKS
DEFIANCE       CLOUDY    69  67  93 CALM      30.06R FOG
FINDLAY        MOCLDY    68  65  90 SE6       30.06R
TOLEDO EXPRESS CLOUDY    68  67  96 S5        30.06R FOG
TOLEDO EXEC    LGT RAIN  69  67  93 SE5       30.07R FOG
LIMA           MOCLDY    68  66  93 S6        30.07R
$$

OHZ009>014-019>023-028>033-038-089-301200-
   NORTHEAST OHIO

CITY           SKY/WX    TMP DP  RH WIND       PRES   REMARKS
CLE-HOPKINS    CLOUDY    67  65  93 W6        30.10R
CLE-LAKEFRONT  CLOUDY    69  66  90 SE8       30.06S
CUY CO. ARPT   CLOUDY    68  66  94 S9        30.08
LORAIN-ELYRIA  CLOUDY    67  66  97 SW3       30.09R
ASHTABULA      LGT RAIN  66  66 100 S3        30.10R FOG
AKRON-CANTON   CLOUDY    67  65  93 S6        30.10S FOG
WOOSTER        CLOUDY    65  64  97 CALM      30.11R
MANSFIELD      CLOUDY    67  67 100 S8        30.10R
YOUNGSTOWN     LGT RAIN  66  65  96 SE7       30.11S FOG
$$

OHZ042-051>053-060>062-070>072-077>081-301200-
  SOUTHWEST OHIO

CITY           SKY/WX    TMP DP  RH WIND       PRES   REMARKS
CINC-COVINGTON MOCLDY    66  64  93 CALM      30.10R
CINC-LUNKEN    PTCLDY    64  64 100 CALM      30.10R FOG
HAMILTON       MOCLDY    68  66  93 SE3       30.10R
DAYTON         CLOUDY    68  66  93 S5        30.09S
WRIGHT-PAT AFB MOCLDY    67  67 100 SW6       30.09R
DAYTON GENERAL MOCLDY    66  64  93 S5        30.09R
WILMINGTON     MOCLDY    64  63  96 S5        30.10S FOG
$$

OHZ036-037-039>041-045>050-054>059-063>069-073>076-082>088-301200-
  CENTRAL AND SOUTHEAST OHIO

CITY           SKY/WX    TMP DP  RH WIND       PRES   REMARKS
COLUMBUS       MOCLDY    67  67 100 CALM      30.10R
OSU AIRPORT    CLOUDY    67  65  93 SW3       30.10R
BOLTON FIELD   NOT AVBL
RICKENBACK AFB MOCLDY    66  65  97 CALM      30.10R FOG
NEWARK         FOG       65  64  97 CALM      30.11R VSB 3/4
MARION         CLOUDY    68  65  90 S8        30.09R FOG
LANCASTER      MOCLDY    64  62  93 E3        30.11R FOG
ZANESVILLE     PTCLDY    66  63  90 CALM      30.12R FOG
NEW PHILLY     CLOUDY    67  66  97 CALM      30.11S
$$



USA.gov is the U.S. government's official web portal to all federal, state and local government web resources and services.